Regional Weather Roundup
Issued by NWS

Home | Current Version | Previous Version | Text Only | Print | Product List | Glossary Off
Versions: 1 2 3 4 5 6 7 8 9 10 11 12 13 14 15 16 17 18 19 20 21 22 23 24 25 26 27 28

000
ASUS45 KSLC 310910
RWRUT

UTAH REGIONAL WEATHER ROUNDUP
NATIONAL WEATHER SERVICE SALT LAKE CITY UT
300 AM MDT TUE MAY 31 2016

UTZ001>011-023>025-311000-

NORTHERN UTAH

CITY           SKY/WX    TMP DP  RH WIND       PRES   REMARKS
BRIGHAM CITY     N/A     53  36  53 NW3       30.06F
HILL AFB       CLEAR     53  37  54 CALM      30.07F
LOGAN          CLEAR     49  40  71 CALM      30.09S
OGDEN          CLEAR     53  39  59 N6        30.05F
PROVO AIRPORT  CLEAR     52  36  54 E3        30.07S
SALT LAKE CITY CLEAR     59  42  53 CALM      30.05S
VERNAL         CLEAR     47  35  63 W3        30.06S
WENDOVER       CLEAR     61  34  36 W9        30.09S
HEBER CITY     PTCLDY    37  32  81 CALM      30.11S
WEST JORDAN    CLEAR     54  34  47 NW3       30.08S

$$

UTZ012>022-026-027-311000-

SOUTHERN/CENTRAL UTAH

CITY           SKY/WX    TMP DP  RH WIND       PRES   REMARKS
BLANDING       CLEAR     50  24  36 N8        30.09S
BRYCE CANYON   CLEAR     37  29  72 W7        30.18F WCI  32
CEDAR CITY     PTCLDY    50  31  48 CALM      30.08R
DELTA          CLEAR     55  32  41 NE5       30.07R
HANKSVILLE     CLEAR     55  32  41 CALM      30.00S
MILFORD        CLEAR     50  29  44 N6        30.06S
MOAB/CYNLANDS  CLEAR     60  31  33 W3        29.95S
PRICE          CLEAR     53  26  35 NW3       30.07S
ST GEORGE      MOSUNNY   64  28  25 CALM      29.92S

$$

REGIONAL REPORTS     COLORADO/ARIZONA

CITY           SKY/WX    TMP DP  RH WIND       PRES   REMARKS
CRAIG, CO      CLOUDY    44  37  76 NW5       30.12S
GRAND JUNCTION CLEAR     55  35  47 S6        30.01S
RIFLE          CLEAR     42  33  70 CALM      30.09S
MONTROSE       CLOUDY    49  33  54 S8        30.07S
CORTEZ         CLEAR     41  30  65 E5        30.03S
PAGE, AZ       CLEAR     63  31  30 SE6       29.94S
GRAND CANYON   CLEAR     36  24  62 CALM      30.11S
KINGMAN        MOCLDY    64  26  23 SE8       29.90F
FLAGSTAFF      CLEAR     38  25  59 CALM      30.11F

$$

REGIONAL REPORTS    NEVADA/IDAHO/WYOMING

CITY           SKY/WX    TMP DP  RH WIND       PRES   REMARKS
LAS VEGAS, NV  PTCLDY    80  31  16 SW5       29.77S
ELY            CLEAR     39  31  72 SW5       30.16S
ELKO           CLEAR     49  38  65 CALM      30.14S
POCATELLO, ID  CLEAR     49  29  46 SW9       30.11R
BURLEY         CLEAR     50  31  48 N3        30.10R
EVANSTON, WY   CLEAR     46  35  65 S5        30.18S
ROCK SPRINGS   CLEAR     41  38  89 E7        30.17F
KEMMERER         N/A     37  32  81 NW14      30.18F WCI  29

$$




USA.gov is the U.S. government's official web portal to all federal, state and local government web resources and services.